Grizzly Air Cargo 5353


PACV
Merle K Smith Airport
Cordova, Alaska, US
PANC
Ted Stevens Anchorage International Airport
Anchorage, Alaska, US

Activity Log

Date Flight Route Aircraft Duration
No Flights Yet

Route Details

Aircraft Information
Primary: Saab 340AF
Backup: Not Available
Route Data
Distance: 142nm
Sched. Duration: 0h 80m
Avg. Duration: 0h 00m (-80m)
Times Flown: 0
Recm'd Route: JOH
Planned Altitude: 16,000ft
Origin Wx: PACV 030200Z 21003KT 7SM -RA BKN014 OVC019 09/07 A2986 RMK AO2 P0000 T00890067
Dest. Wx: PANC 030153Z 16014G26KT 10SM -RA FEW055 BKN080 BKN200 13/04 A2967 RMK AO2 PK WND 17026/0149 RAE23B48 SLP049 P0000 T01280044
Notes:

Financial History
Total Freight: 0lbs
Average Load: 0lbs/flt
Fuel Used: 0lbs
Avg. Fuel Used: 0lbs/flt
Fuel Expense: $0
Avg. Fuel Expense: $0
Avg. Fuel Cost: $0/lbs
Total Gross Income: $0
Pilot Pay: $0
Total Expenses: $0
Total Revenue: $0
Average Revenue: $0